When you browse on this site, cookies collect data to enhance your experience and personalize the content and advertising you see.
Visit our Privacy Policy to learn more. By continuing to use the site, you agree to this use of cookies and data.
  • In Deutschland
  • Länderverzeichnis
  • Für 7 Tage
  • Wassertemperatur
  • Wetterkarte
  • Widgets
  • user-avatar
    Anmelden

    Stündliche Wetter Quito

    Heute, 27 Mai, Mittwoch

    Zeit Temperatur Niederschläge Wind Luftdruck Luftfeuchtigkeit
    00:00 +14°C° 0 mm 1 m/S 622 mmHg 51%
    01:00 +14°C° 0 mm 1 m/S 622 mmHg 50%
    02:00 +14°C° 0 mm 1 m/S 622 mmHg 55%
    03:00 +14°C° 0 mm 1 m/S 622 mmHg 61%
    04:00 +14°C° 0 mm 1 m/S 622 mmHg 67%
    05:00 +14°C° 0 mm 1 m/S 622 mmHg 67%
    06:00 +15°C° 0 mm 1 m/S 623 mmHg 68%
    07:00 +15°C° 0 mm 1 m/S 624 mmHg 69%
    08:00 +20°C° 0 mm 1 m/S 625 mmHg 59%
    09:00 +23°C° 0 mm 1 m/S 626 mmHg 48%
    10:00 +26°C° 0 mm 1 m/S 627 mmHg 37%
    11:00 +27°C° 0 mm 2 m/S 626 mmHg 35%
    12:00 +28°C° 0 mm 2 m/S 626 mmHg 32%
    13:00 +28°C° 0 mm 3 m/S 625 mmHg 29%
    14:00 +28°C° 0 mm 3 m/S 624 mmHg 30%
    15:00 +27°C° 0 mm 3 m/S 624 mmHg 32%
    16:00 +27°C° 0 mm 3 m/S 623 mmHg 34%
    17:00 +24°C° 0 mm 2 m/S 623 mmHg 41%
    18:00 +20°C° 0 mm 2 m/S 623 mmHg 48%
    19:00 +19°C° 0 mm 1 m/S 623 mmHg 56%
    20:00 +18°C° 0 mm 1 m/S 623 mmHg 56%
    21:00 +18°C° 0 mm 1 m/S 623 mmHg 56%
    22:00 +16°C° 0 mm 0 m/S 623 mmHg 56%
    23:00 +15°C° 0 mm 0 m/S 623 mmHg 57%

    Morgen, 28 Mai, Donnerstag

    Zeit Temperatur Niederschläge Wind Luftdruck Luftfeuchtigkeit
    00:00 +15°C° 0 mm 0 m/S 623 mmHg 57%
    01:00 +15°C° 0 mm 0 m/S 623 mmHg 58%
    02:00 +15°C° 0 mm 0 m/S 623 mmHg 57%
    03:00 +16°C° 0 mm 1 m/S 623 mmHg 57%
    04:00 +16°C° 0 mm 1 m/S 623 mmHg 57%
    05:00 +16°C° 0 mm 1 m/S 623 mmHg 58%
    06:00 +16°C° 0 mm 1 m/S 624 mmHg 60%
    07:00 +16°C° 0 mm 1 m/S 624 mmHg 61%
    08:00 +19°C° 0 mm 1 m/S 625 mmHg 55%
    09:00 +21°C° 0 mm 2 m/S 626 mmHg 48%
    10:00 +25°C° 0 mm 2 m/S 626 mmHg 42%
    11:00 +26°C° 0 mm 2 m/S 626 mmHg 39%
    12:00 +27°C° 0 mm 2 m/S 626 mmHg 36%
    13:00 +28°C° 0 mm 2 m/S 625 mmHg 33%
    14:00 +28°C° 0 mm 2 m/S 625 mmHg 34%
    15:00 +27°C° 0 mm 2 m/S 624 mmHg 34%
    16:00 +27°C° 0 mm 2 m/S 624 mmHg 34%
    17:00 +24°C° 0 mm 2 m/S 624 mmHg 41%
    18:00 +22°C° 0 mm 1 m/S 623 mmHg 47%
    19:00 +19°C° 0 mm 1 m/S 623 mmHg 53%
    20:00 +19°C° 0 mm 1 m/S 623 mmHg 53%
    21:00 +18°C° 0 mm 1 m/S 623 mmHg 54%
    22:00 +16°C° 0 mm 0 m/S 623 mmHg 54%
    23:00 +16°C° 0 mm 1 m/S 623 mmHg 55%

    übermorgen, 29 Mai, Freitag

    Zeit Temperatur Niederschläge Wind Luftdruck Luftfeuchtigkeit
    00:00 +16°C° 0 mm 1 m/S 623 mmHg 57%
    01:00 +15°C° 0 mm 1 m/S 622 mmHg 58%
    02:00 +15°C° 0 mm 1 m/S 622 mmHg 61%
    03:00 +14°C° 0 mm 1 m/S 622 mmHg 64%
    04:00 +14°C° 0 mm 1 m/S 622 mmHg 66%
    05:00 +14°C° 0 mm 1 m/S 622 mmHg 65%
    06:00 +15°C° 0 mm 1 m/S 623 mmHg 63%
    07:00 +15°C° 0 mm 1 m/S 624 mmHg 62%
    08:00 +18°C° 0 mm 2 m/S 625 mmHg 52%
    09:00 +21°C° 0 mm 3 m/S 626 mmHg 43%
    10:00 +23°C° 0 mm 4 m/S 626 mmHg 33%
    11:00 +25°C° 0 mm 3 m/S 626 mmHg 32%
    12:00 +26°C° 0 mm 3 m/S 625 mmHg 31%
    13:00 +27°C° 0 mm 3 m/S 625 mmHg 30%
    14:00 +27°C° 0 mm 2 m/S 625 mmHg 30%
    15:00 +26°C° 0 mm 2 m/S 624 mmHg 31%
    16:00 +26°C° 0 mm 1 m/S 624 mmHg 32%
    17:00 +23°C° 0 mm 1 m/S 623 mmHg 37%
    18:00 +21°C° 0 mm 1 m/S 623 mmHg 43%
    19:00 +16°C° 0 mm 0 m/S 622 mmHg 48%
    20:00 +16°C° 0 mm 0 m/S 622 mmHg 50%
    21:00 +16°C° 0 mm 1 m/S 623 mmHg 52%
    22:00 +15°C° 0 mm 1 m/S 623 mmHg 53%
    23:00 +15°C° 0 mm 1 m/S 622 mmHg 54%

    30 Mai, Samstag

    Zeit Temperatur Niederschläge Wind Luftdruck Luftfeuchtigkeit
    00:00 +15°C° 0 mm 1 m/S 622 mmHg 55%
    01:00 +14°C° 0 mm 1 m/S 622 mmHg 56%
    02:00 +14°C° 0 mm 1 m/S 622 mmHg 57%
    03:00 +13°C° 0 mm 1 m/S 622 mmHg 58%
    04:00 +12°C° 0 mm 1 m/S 621 mmHg 59%
    05:00 +13°C° 0 mm 1 m/S 622 mmHg 57%
    06:00 +13°C° 0 mm 1 m/S 623 mmHg 56%
    07:00 +13°C° 0 mm 0 m/S 624 mmHg 55%
    08:00 +17°C° 0 mm 2 m/S 624 mmHg 46%
    09:00 +20°C° 0 mm 3 m/S 625 mmHg 37%
    10:00 +23°C° 0 mm 4 m/S 626 mmHg 28%
    11:00 +25°C° 0 mm 4 m/S 626 mmHg 27%
    12:00 +26°C° 0 mm 3 m/S 625 mmHg 25%
    13:00 +27°C° 0 mm 3 m/S 625 mmHg 23%
    14:00 +27°C° 0 mm 3 m/S 625 mmHg 24%
    15:00 +26°C° 0 mm 2 m/S 624 mmHg 25%
    16:00 +26°C° 0 mm 2 m/S 624 mmHg 26%
    17:00 +23°C° 0 mm 1 m/S 624 mmHg 31%
    18:00 +20°C° 0 mm 1 m/S 623 mmHg 37%
    19:00 +15°C° 0 mm 0 m/S 623 mmHg 42%
    20:00 +15°C° 0 mm 0 m/S 623 mmHg 43%
    21:00 +14°C° 0 mm 0 m/S 623 mmHg 43%
    22:00 +14°C° 0 mm 0 m/S 623 mmHg 44%
    23:00 +14°C° 0 mm 1 m/S 623 mmHg 46%

    31 Mai, Sonntag

    Zeit Temperatur Niederschläge Wind Luftdruck Luftfeuchtigkeit
    00:00 +14°C° 0 mm 1 m/S 623 mmHg 49%
    01:00 +13°C° 0 mm 1 m/S 623 mmHg 51%
    02:00 +13°C° 0 mm 1 m/S 622 mmHg 53%
    03:00 +12°C° 0 mm 1 m/S 622 mmHg 55%
    04:00 +12°C° 0 mm 1 m/S 622 mmHg 58%
    05:00 +12°C° 0 mm 1 m/S 622 mmHg 58%
    06:00 +13°C° 0 mm 1 m/S 623 mmHg 58%
    07:00 +14°C° 0 mm 1 m/S 624 mmHg 58%
    08:00 +17°C° 0 mm 2 m/S 625 mmHg 50%
    09:00 +20°C° 0 mm 3 m/S 625 mmHg 41%
    10:00 +25°C° 0 mm 4 m/S 626 mmHg 33%
    11:00 +26°C° 0 mm 4 m/S 626 mmHg 32%
    12:00 +27°C° 0 mm 4 m/S 626 mmHg 31%
    13:00 +28°C° 0 mm 3 m/S 626 mmHg 29%
    14:00 +27°C° 0 mm 3 m/S 625 mmHg 30%
    15:00 +27°C° 0 mm 3 m/S 625 mmHg 31%
    16:00 +27°C° 0 mm 3 m/S 624 mmHg 32%
    17:00 +24°C° 0 mm 2 m/S 624 mmHg 37%
    18:00 +21°C° 0 mm 1 m/S 624 mmHg 42%
    19:00 +18°C° 0 mm 1 m/S 623 mmHg 48%
    20:00 +18°C° 0 mm 1 m/S 624 mmHg 51%
    21:00 +16°C° 0 mm 1 m/S 624 mmHg 53%
    22:00 +15°C° 0 mm 1 m/S 624 mmHg 56%
    23:00 +15°C° 0 mm 1 m/S 624 mmHg 59%

    1 Juni, Montag

    Zeit Temperatur Niederschläge Wind Luftdruck Luftfeuchtigkeit
    00:00 +14°C° 0 mm 1 m/S 624 mmHg 61%
    01:00 +14°C° 0 mm 1 m/S 623 mmHg 63%
    02:00 +13°C° 0 mm 1 m/S 623 mmHg 64%
    03:00 +13°C° 0 mm 1 m/S 623 mmHg 65%
    04:00 +13°C° 0 mm 1 m/S 623 mmHg 66%
    05:00 +13°C° 0 mm 1 m/S 623 mmHg 65%
    06:00 +14°C° 0 mm 1 m/S 624 mmHg 63%
    07:00 +14°C° 0 mm 1 m/S 624 mmHg 62%
    08:00 +17°C° 0 mm 2 m/S 625 mmHg 53%
    09:00 +20°C° 0 mm 3 m/S 626 mmHg 44%
    10:00 +23°C° 0 mm 4 m/S 627 mmHg 35%
    11:00 +25°C° 0 mm 3 m/S 626 mmHg 33%
    12:00 +26°C° 0 mm 3 m/S 626 mmHg 31%
    13:00 +27°C° 0 mm 3 m/S 625 mmHg 29%
    14:00 +27°C° 0 mm 3 m/S 625 mmHg 29%
    15:00 +27°C° 0 mm 2 m/S 625 mmHg 29%
    16:00 +26°C° 0 mm 2 m/S 624 mmHg 29%
    17:00 +24°C° 0 mm 2 m/S 624 mmHg 35%
    18:00 +22°C° 0 mm 1 m/S 624 mmHg 41%
    19:00 +19°C° 0 mm 1 m/S 623 mmHg 47%
    20:00 +19°C° 0 mm 1 m/S 624 mmHg 47%
    21:00 +19°C° 0 mm 1 m/S 624 mmHg 47%
    22:00 +18°C° 0 mm 1 m/S 624 mmHg 47%
    23:00 +16°C° 0 mm 1 m/S 624 mmHg 52%
    Mehr zeigen